Chamberlain, SD

11:31 AM CST on February 08, 2016 (GMT -0600)
Chamberlain

Weather History for K9V9 - October, 2013

Change the Weather History Date:

Wednesday, October 30, 2013

  Actual Average Record
Temperature  
Mean Temperature 35 °F -  
Max Temperature 37 °F 50 °F 78 °F (2007)
Min Temperature 33 °F 29 °F 19 °F (1996)
Degree Days  
Heating Degree Days 30    
Moisture  
Dew Point 32 °F    
Average Humidity 91    
Maximum Humidity 96    
Minimum Humidity 86    
Precipitation  
Precipitation 0.00 in - - ()
Sea Level Pressure  
Sea Level Pressure 29.93 in    
Wind  
Wind Speed 4 mph (NW)    
Max Wind Speed 7 mph    
Max Gust Speed -    
Averages and records for this station are not official NWS values.
T = Trace of Precipitation, MM = Missing Value Source: NWS Daily Summary

Daily Weather History Graph

Daily Weather History Graph

Search for Another Location

Airport or City:

Trip Planner

Search our weather history database for the weather conditions in past years. The results will help you decide how hot, cold, wet, or windy it might be!

Date:

Astronomy

Oct. 30, 2013 Rise Set
Actual Time 8:11 AM CDT 6:30 PM CDT
Civil Twilight 7:41 AM CDT 6:59 PM CDT
Nautical Twilight 7:07 AM CDT 7:33 PM CDT
Astronomical Twilight 6:33 AM CDT 8:07 PM CDT
Moon 3:53 AM CDT (10/30) 4:22 PM CDT (10/30)
Length of Visible Light 11h 18m
Length of Day
10h 19m
Waning Crescent, 17% of the Moon is Illuminated
Oct 30
Waning Crescent
Nov 3
New
Nov 9
First Quarter
Nov 17
Full
Nov 25
Last Quarter

Hourly Weather History & Observations

Time (CDT) Temp. Windchill Dew Point Humidity Pressure Visibility Wind Dir Wind Speed Gust Speed Precip Events Conditions
12:52 AM 33.1 °F 30.0 °F 32.0 °F 96% 30.10 in - NW 3.5 mph - N/A   Unknown
1:52 AM 33.1 °F - 32.0 °F 96% 30.08 in - Calm Calm - N/A   Unknown
2:52 AM 33.1 °F 26.9 °F 30.9 °F 92% 30.04 in - NNW 6.9 mph - N/A   Unknown
3:52 AM 33.1 °F 27.7 °F 30.9 °F 92% 30.05 in - NW 5.8 mph - N/A   Unknown
4:52 AM 33.1 °F 26.9 °F 30.9 °F 92% 30.02 in - North 6.9 mph - N/A   Unknown
5:52 AM 33.1 °F 26.9 °F 30.9 °F 92% 30.01 in - NE 6.9 mph - N/A   Unknown
6:52 AM 33.1 °F 28.7 °F 30.9 °F 92% 30.00 in - ENE 4.6 mph - N/A   Unknown
7:52 AM 33.1 °F 28.7 °F 32.0 °F 96% 29.98 in - NNE 4.6 mph - N/A   Unknown
8:52 AM 34.0 °F - 30.9 °F 89% 30.00 in - Calm Calm - N/A   Unknown
9:52 AM 34.0 °F - 32.0 °F 92% 30.00 in - Calm Calm - N/A   Unknown
10:52 AM 34.0 °F 29.8 °F 32.0 °F 92% 29.97 in - West 4.6 mph - N/A   Unknown
11:52 AM 35.1 °F 32.2 °F 33.1 °F 92% 29.94 in - WNW 3.5 mph - N/A   Unknown
12:52 PM 35.1 °F 32.2 °F 33.1 °F 92% 29.92 in - West 3.5 mph - N/A   Unknown
1:52 PM 36.0 °F 33.3 °F 33.1 °F 89% 29.91 in - West 3.5 mph - N/A   Unknown
2:52 PM 37.0 °F 33.3 °F 33.1 °F 86% 29.88 in - WSW 4.6 mph - N/A   Unknown
3:52 PM 37.0 °F 32.4 °F 33.1 °F 86% 29.86 in - West 5.8 mph - N/A   Unknown
4:52 PM 37.9 °F 34.4 °F 34.0 °F 86% 29.85 in - WNW 4.6 mph - N/A   Unknown
5:52 PM 37.9 °F 32.7 °F 34.0 °F 86% 29.83 in - NW 6.9 mph - N/A   Unknown
6:52 PM 36.0 °F 32.1 °F 32.0 °F 86% 29.83 in - North 4.6 mph - N/A   Unknown
7:52 PM 37.0 °F 34.5 °F 34.0 °F 89% 29.83 in - NNW 3.5 mph - N/A   Unknown
8:52 PM 37.0 °F - 34.0 °F 89% 29.83 in - Calm Calm - N/A   Unknown
9:52 PM 36.0 °F - 34.0 °F 93% 29.83 in - Calm Calm - N/A   Unknown
10:52 PM 36.0 °F - 33.1 °F 89% 29.82 in - Calm Calm - N/A   Unknown
11:52 PM 33.1 °F - 30.9 °F 92% 29.79 in - Calm Calm - N/A   Unknown